| time (UTC) | temp F | wind direction | speed MPH | gust MPH | rain 1hr in | rain 24hr in | rain mn in | humidity % | barometer mb |
| 20260504081503 | 55 | 231 | 0.0 | 1.0 | 0.00 | 0.00 | 0.00 | 91 | 1017.3 |
| 20260504050020 | 57 | 195 | 0.0 | 0.0 | 0.00 | 0.00 | 0.00 | 88 | 1018.8 |
| 20260504044528 | 57 | 195 | 0.0 | 0.0 | 0.00 | 0.00 | 0.00 | 88 | 1018.9 |
| 20260504043008 | 58 | 195 | 0.0 | 0.0 | 0.00 | 0.00 | 0.00 | 87 | 1019.0 |
| 20260504041512 | 58 | 195 | 0.0 | 0.0 | 0.00 | 0.00 | 0.00 | 87 | 1018.9 |
| 20260504040018 | 59 | 195 | 0.0 | 0.0 | 0.00 | 0.00 | 0.00 | 85 | 1018.8 |
| 20260504034522 | 58 | 195 | 0.0 | 0.0 | 0.00 | 0.00 | 0.00 | 85 | 1018.8 |
| 20260504033024 | 59 | 195 | 0.0 | 0.0 | 0.00 | 0.00 | 0.00 | 86 | 1018.7 |
| 20260504031510 | 59 | 249 | 0.0 | 0.0 | 0.00 | 0.00 | 0.00 | 81 | 1018.7 |
| 20260504030015 | 61 | 249 | 0.0 | 0.0 | 0.00 | 0.00 | 0.00 | 80 | 1018.7 |
| 20260504024520 | 60 | 249 | 0.0 | 1.0 | 0.00 | 0.00 | 0.00 | 83 | 1018.7 |
| 20260504023022 | 61 | 249 | 0.0 | 0.0 | 0.00 | 0.00 | 0.00 | 74 | 1018.5 |
| 20260504021528 | 62 | 249 | 0.0 | 0.0 | 0.00 | 0.00 | 0.00 | 79 | 1018.4 |
| 20260504020011 | 62 | 249 | 0.0 | 1.0 | 0.00 | 0.00 | 0.00 | 76 | 1018.2 |
| 20260504014515 | 63 | 249 | 0.0 | 1.0 | 0.00 | 0.00 | 0.00 | 71 | 1018.1 |
| 20260504013029 | 64 | 249 | 0.0 | 0.0 | 0.00 | 0.00 | 0.00 | 69 | 1018.0 |
| 20260504011528 | 64 | 249 | 0.0 | 0.0 | 0.00 | 0.00 | 0.00 | 67 | 1017.8 |
| 20260504010027 | 65 | 249 | 0.0 | 1.0 | 0.00 | 0.00 | 0.00 | 68 | 1017.8 |
| 20260504004514 | 66 | 249 | 0.0 | 1.0 | 0.00 | 0.00 | 0.00 | 65 | 1017.7 |
| 20260504003016 | 68 | 249 | 0.0 | 0.0 | 0.00 | 0.00 | 0.00 | 58 | 1017.6 |
| 20260504001524 | 70 | 249 | 0.0 | 1.0 | 0.00 | 0.00 | 0.00 | 55 | 1017.7 |
| 20260504000049 | 72 | 249 | 0.0 | 1.0 | 0.00 | 0.00 | 0.00 | 51 | 1017.5 |
| 20260503234508 | 72 | 276 | 1.0 | 2.0 | 0.00 | 0.00 | 0.00 | 49 | 1017.7 |
| 20260503233013 | 72 | 250 | 1.0 | 3.0 | 0.00 | 0.00 | 0.00 | 48 | 1017.8 |
| 20260503231519 | 73 | 260 | 1.0 | 5.0 | 0.00 | 0.00 | 0.00 | 45 | 1017.9 |
| 20260503230022 | 74 | 204 | 2.0 | 6.0 | 0.00 | 0.00 | 0.00 | 42 | 1017.7 |
| 20260503224503 | 75 | 169 | 2.0 | 7.0 | 0.00 | 0.00 | 0.00 | 41 | 1018.0 |
| 20260503223010 | 75 | 92 | 2.0 | 7.0 | 0.00 | 0.00 | 0.00 | 40 | 1018.1 |
| 20260503221514 | 75 | 277 | 3.0 | 7.0 | 0.00 | 0.00 | 0.00 | 42 | 1018.0 |
| 20260503220022 | 75 | 60 | 3.0 | 6.0 | 0.00 | 0.00 | 0.00 | 39 | 1018.2 |
| 20260503214524 | 76 | 267 | 2.0 | 7.0 | 0.00 | 0.00 | 0.00 | 40 | 1018.4 |
| 20260503213009 | 77 | 288 | 2.0 | 8.0 | 0.00 | 0.00 | 0.00 | 38 | 1018.5 |
| 20260503211516 | 76 | 120 | 3.0 | 9.0 | 0.00 | 0.00 | 0.00 | 38 | 1018.7 |
| 20260503210016 | 77 | 328 | 3.0 | 9.0 | 0.00 | 0.00 | 0.00 | 39 | 1018.8 |
| 20260503204522 | 76 | 315 | 3.0 | 7.0 | 0.00 | 0.00 | 0.00 | 38 | 1019.1 |
| 20260503203038 | 77 | 98 | 1.0 | 8.0 | 0.00 | 0.00 | 0.00 | 38 | 1019.2 |
| 20260503201509 | 76 | 304 | 3.0 | 8.0 | 0.00 | 0.00 | 0.00 | 40 | 1019.5 |
| 20260503200016 | 75 | 264 | 2.0 | 10.0 | 0.00 | 0.00 | 0.00 | 40 | 1019.7 |
| 20260503194518 | 75 | 255 | 2.0 | 8.0 | 0.00 | 0.00 | 0.00 | 39 | 1019.9 |
| 20260503193025 | 76 | 259 | 4.0 | 9.0 | 0.00 | 0.00 | 0.00 | 35 | 1020.2 |
| 20260503191526 | 76 | 249 | 4.0 | 7.0 | 0.00 | 0.00 | 0.00 | 36 | 1020.5 |
| 20260503190035 | 76 | 328 | 2.0 | 10.0 | 0.00 | 0.00 | 0.00 | 37 | 1020.5 |
| 20260503184517 | 76 | 241 | 3.0 | 10.0 | 0.00 | 0.00 | 0.00 | 38 | 1020.7 |
| 20260503183027 | 77 | 237 | 3.0 | 6.0 | 0.00 | 0.00 | 0.00 | 35 | 1020.9 |
| 20260503181526 | 77 | 293 | 2.0 | 5.0 | 0.00 | 0.00 | 0.00 | 37 | 1021.1 |
| 20260503180030 | 76 | 253 | 1.0 | 8.0 | 0.00 | 0.00 | 0.00 | 36 | 1021.2 |
| 20260503174528 | 77 | 347 | 1.0 | 4.0 | 0.00 | 0.00 | 0.00 | 31 | 1021.4 |
| 20260503173037 | 75 | 55 | 2.0 | 7.0 | 0.00 | 0.00 | 0.00 | 33 | 1021.7 |
| 20260503171533 | 79 | 11 | 2.0 | 5.0 | 0.00 | 0.00 | 0.00 | 31 | 1022.0 |